[[{"header":{"parameterUnit":"m.s-1","parameterCategory":1,"la1":30.2991,"la2":30.254,"lo1":-89.0895,"lo2":-89.0444,"dy":0.0017,"dx":0.0017,"nx":28,"ny":28,"refTime":"2024-10-20T03:00:00:Z","depth":0,"parameterNumber":2,"parameterNumberName":"U-component_of_WINDS"},"data":[0,0,0,0,0,0,0,0,0,0,0,0,0,0,0,0,0,0,0,0,0,0,0,0,0,0,0,0,0,0,0,0,0,0,0,0,0,0,0,0,0,0,0,0,0,0,0,0,0,0,0,0,0,0,0,0,0,0,-2.7657,-2.7658,0,-2.7735,-2.7736,-2.7737,-2.7641,-2.7637,-2.7634,-2.7631,-2.7712,-2.7717,-2.7723,0,0,0,0,0,0,0,0,0,0,0,0,0,-2.7427,-2.7431,-2.7657,-2.7658,-2.7659,-2.7735,-2.7736,-2.7737,-2.7642,-2.7637,-2.7633,-2.7629,-2.771,-2.7717,-2.7723,0,0,0,0,0,0,0,0,0,0,0,0,0,-2.7518,-2.7433,-2.7657,-2.7621,-2.7618,-2.7735,-2.7736,-2.7737,-2.7642,-2.7637,-2.7632,-2.7627,-2.7708,-2.7716,-2.7724,-2.7881,0,0,-2.7749,-2.7753,0,0,0,0,0,0,0,0,-2.7513,-2.7527,-2.7625,-2.7623,-2.7621,-2.7673,-2.7684,-2.7785,-2.7644,-2.7633,-2.763,-2.7624,-2.7703,-2.7712,-2.7738,-2.7884,-2.7888,-2.775,-2.7755,-2.7758,-2.7761,0,0,0,0,0,0,0,-2.7507,-2.7523,-2.7688,-2.7627,-2.7624,-2.7601,-2.7608,-2.7703,-2.7697,-2.7634,-2.7627,-2.7637,-2.7701,-2.773,-2.7739,-2.7889,-2.7749,-2.7757,-2.7762,-2.7765,-2.8168,-2.8174,0,0,0,0,0,0,-2.7504,-2.7518,-2.7686,-2.769,-2.7553,-2.7609,-2.7617,-2.7662,-2.7696,-2.7696,-2.7642,-2.7633,-2.7719,-2.773,-2.7742,-2.7928,-2.7758,-2.7766,-2.7771,-2.8162,-2.8169,-2.8176,0,0,0,0,0,0,-2.75,-2.752,-2.7682,-2.7602,-2.7621,-2.7619,-2.7669,-2.7666,-2.7695,-2.7702,-2.77,-2.7673,-2.7715,-2.773,-2.7847,-2.7929,-2.777,-2.7777,-2.8155,-2.8164,-2.8172,-2.8302,0,0,0,0,0,0,-2.7494,-2.7519,-2.7579,-2.7604,-2.7626,-2.7787,-2.7674,-2.7671,-2.7709,-2.7698,-2.773,-2.7731,-2.7712,-2.7835,-2.7855,-2.7938,-2.7783,-2.8148,-2.8159,-2.817,-2.829,-2.8314,-2.8334,0,0,0,0,0,-2.7486,-2.7613,-2.7582,-2.7603,-2.77,-2.7792,-2.7804,-2.7779,-2.7716,-2.7776,-2.778,-2.773,-2.7916,-2.7848,-2.7869,-2.7956,-2.8143,-2.8156,-2.8169,-2.828,-2.8309,-2.8334,0,0,0,0,0,0,-2.7598,-2.7615,-2.7582,-2.7721,-2.7755,-2.7775,-2.785,-2.7811,-2.7864,-2.7852,-2.7819,-2.7827,-2.7952,-2.7965,-2.7888,-2.8109,-2.8019,-2.8037,-2.8097,-2.8124,-2.8146,-2.8141,-2.779,0,0,0,0,0,-2.7638,-2.7711,-2.7722,-2.7843,-2.7862,-2.7854,-2.7892,-2.787,-2.7905,-2.7919,-2.7932,-2.7968,-2.8035,-2.808,-2.8141,-2.829,-2.8297,-2.8361,-2.8383,-2.84,-2.8417,-2.8498,-2.8527,-2.8218,-2.8218,-2.8218,0,0,-2.7724,-2.7742,-2.779,-2.7866,-2.7891,-2.7967,-2.7867,-2.7951,-2.8008,-2.7932,-2.8044,-2.8054,-2.8092,-2.8226,-2.8285,-2.8241,-2.8503,-2.8417,-2.8431,-2.8439,-2.8514,-2.8543,-2.8569,-2.8227,-2.8226,-2.8224,0,0,-2.7918,-2.7939,-2.8043,-2.8068,-2.8106,-2.8099,-2.8124,-2.815,-2.8154,-2.8264,-2.8209,-2.8275,-2.8391,-2.842,-2.8451,-2.8654,-2.8611,-2.8675,-2.8791,-2.887,-2.8894,-2.8916,-2.899,-2.9017,-2.8691,-2.8692,-2.8692,0,-2.802,-2.8132,-2.8101,-2.819,-2.8225,-2.8159,-2.8264,-2.829,-2.8347,-2.8373,-2.8321,-2.8465,-2.8485,-2.8626,-2.8675,-2.8701,-2.8729,-2.8673,-2.8893,-2.8914,-2.8934,-2.9004,-2.9032,-2.8699,-2.8699,-2.8698,-2.8697,0,-2.8256,-2.8334,-2.8413,-2.8469,-2.8513,-2.861,-2.8593,-2.8641,-2.8615,-2.8613,-2.8727,-2.8749,-2.8814,-2.8845,-2.882,-2.8982,-2.8953,-2.8898,-2.8807,-2.8972,-2.9038,-2.9064,-2.8711,-2.8708,-2.8705,-2.8704,0,0,-2.8526,-2.8561,-2.8591,-2.8616,-2.8651,-2.8712,-2.8805,-2.8868,-2.891,-2.895,-2.9029,-2.9127,-2.9076,-2.911,-2.9087,-2.9156,-2.9318,-2.9092,-2.9093,-2.9135,-2.9499,-2.9542,-2.9574,-2.9288,-2.9293,-2.9296,-2.9497,0,-2.8722,-2.8884,-2.8858,-2.9014,-2.9087,-2.9024,-2.9105,-2.9136,-2.9136,-2.9198,-2.9198,-2.9269,-2.9195,-2.9216,-2.9281,-2.9285,-2.9391,-2.9269,-2.9361,-2.9365,-2.9357,-2.9608,-2.9654,-2.9842,-2.9522,-2.9526,-2.9529,0,-2.8974,-2.9023,-2.9187,-2.921,-2.924,-2.9313,-2.9369,-2.9428,-2.9461,-2.9457,-2.9495,-2.9459,-2.9552,-2.9458,-2.9586,-2.9504,-2.954,-2.9547,-2.9554,-2.9564,-2.9459,-2.9627,-2.9901,-2.9931,-2.9569,-2.9566,-2.9563,0,-2.9157,-2.9263,-2.9375,-2.9398,-2.9428,-2.9481,-2.9496,-2.9524,-2.9563,-2.9611,-2.9637,-2.9695,-2.9728,-2.9774,-2.9756,-2.9688,-2.9888,-2.9792,-2.9889,-2.9889,-2.9936,-2.9934,-3.0222,-2.9955,-2.9955,-2.9954,-2.9953,0,-2.938,-2.9484,-2.9458,-2.9527,-2.9641,-2.9609,-2.9722,-2.9729,-2.9755,-2.9824,-2.9772,-2.9839,-2.9808,-2.9873,-2.9858,-2.9968,-2.9982,-2.9982,-2.9978,-2.9989,-2.9989,-3.0014,-3.0001,-2.9961,-2.996,-2.9958,-2.9957,0,-2.9606,-2.9592,-2.971,-2.9728,-2.9735,-2.9819,-2.9834,-2.9899,-2.9894,-2.9983,-3.0002,-2.9995,-3.0069,-3.0053,-3.0134,-3.0124,-3.0262,-3.024,-3.0251,-3.0247,-3.0345,-3.0337,-3.0661,-3.0703,-3.0406,-3.0409,-3.0411,0,-2.9751,-2.9828,-2.9854,-2.9897,-2.9916,-2.9985,-3.0025,-2.9996,-3.004,-3.0083,-3.0143,-3.0211,-3.0264,-3.0384,-3.0387,-3.0448,-3.0428,-3.0537,-3.0437,-3.0446,-3.0432,-3.0429,-3.0437,-3.0559,-3.0562,-3.0565,-3.0567,0,-3.001,-2.9999,-3.0058,-3.0115,-3.0164,-3.0207,-3.0246,-3.0284,-3.0258,-3.0309,-3.0383,-3.0424,-3.0506,-3.0575,-3.0631,-3.0646,-3.0604,-3.0598,-3.0624,-3.0637,-3.0641,-3.0642,-3.0308,-3.0591,-3.0589,-3.0587,-3.0586,-3.0585,-3.0201,-3.0267,-3.0296,-3.0363,-3.0389,-3.0426,-3.0488,-3.049,-3.0551,-3.0615,-3.0594,-3.0678,-3.0709,-3.078,-3.0802,-3.0868,-3.0827,-3.0864,-3.0874,-3.0884,-3.0897,-3.0629,-3.0878,-3.0877,-3.0876,-3.0876,-3.0875,0,-3.0459,-3.0474,-3.0536,-3.0591,-3.0645,-3.0597,-3.0637,-3.0685,-3.076,-3.0791,-3.0844,-3.0929,-3.0995,-3.1002,-3.1065,-3.1116,-3.1098,-3.1134,-3.1131,-3.1136,-3.0929,-3.0902,-3.1147,-3.1147,-3.1147,-3.1147,-3.1147,-3.1147,-3.06,-3.071,-3.0703,-3.0825,-3.0838,-3.0921,-3.0948,-3.0982,-3.1007,-3.1104,-3.1158,-3.1161,-3.1184,-3.1247,-3.1305,-3.1306,-3.1332,-3.1376,-3.1369,-3.1177,-3.115,-3.1124,-3.1098,-3.1382,-3.1382,-3.157,-3.1572,-3.1574]},{"header":{"parameterUnit":"m.s-1","parameterCategory":1,"la1":30.2991,"la2":30.254,"lo1":-89.0895,"lo2":-89.0444,"dy":0.0017,"dx":0.0017,"nx":28,"ny":28,"refTime":"2024-10-20T03:00:00:Z","depth":0,"parameterNumber":3,"parameterNumberName":"V-component_of_WINDS"},"data":[0,0,0,0,0,0,0,0,0,0,0,0,0,0,0,0,0,0,0,0,0,0,0,0,0,0,0,0,0,0,0,0,0,0,0,0,0,0,0,0,0,0,0,0,0,0,0,0,0,0,0,0,0,0,0,0,0,0,-3.3878,-3.3879,0,-3.3919,-3.392,-3.392,-3.3893,-3.3892,-3.3891,-3.3889,-3.3929,-3.3931,-3.3933,0,0,0,0,0,0,0,0,0,0,0,0,0,-3.3773,-3.3775,-3.3878,-3.3879,-3.3879,-3.3919,-3.392,-3.392,-3.3893,-3.3892,-3.389,-3.3889,-3.3928,-3.3931,-3.3934,0,0,0,0,0,0,0,0,0,0,0,0,0,-3.3817,-3.3775,-3.3878,-3.3871,-3.387,-3.3919,-3.392,-3.392,-3.3894,-3.3892,-3.389,-3.3888,-3.3927,-3.3931,-3.3934,-3.3991,0,0,-3.3944,-3.3945,0,0,0,0,0,0,0,0,-3.3814,-3.382,-3.3871,-3.3871,-3.3871,-3.3899,-3.3897,-3.3944,-3.3894,-3.3885,-3.3889,-3.3887,-3.392,-3.3924,-3.3936,-3.3993,-3.3995,-3.3944,-3.3946,-3.3948,-3.3949,0,0,0,0,0,0,0,-3.3811,-3.3819,-3.3894,-3.3872,-3.3872,-3.3864,-3.3868,-3.3906,-3.3912,-3.3885,-3.3883,-3.3889,-3.392,-3.3933,-3.3937,-3.3996,-3.3944,-3.3947,-3.3949,-3.395,-3.4099,-3.4101,0,0,0,0,0,0,-3.3809,-3.3816,-3.3893,-3.3896,-3.3837,-3.3867,-3.3872,-3.3892,-3.3912,-3.3913,-3.389,-3.3887,-3.3928,-3.3933,-3.3938,-3.4005,-3.3948,-3.3951,-3.3953,-3.4097,-3.41,-3.4102,0,0,0,0,0,0,-3.3807,-3.3816,-3.3891,-3.3855,-3.3864,-3.3871,-3.3894,-3.3894,-3.3906,-3.3916,-3.3916,-3.3902,-3.3927,-3.3933,-3.3978,-3.4006,-3.3952,-3.3955,-3.4095,-3.4098,-3.4101,-3.414,0,0,0,0,0,0,-3.3804,-3.3816,-3.3839,-3.3856,-3.3866,-3.3932,-3.3896,-3.3896,-3.3913,-3.3909,-3.3927,-3.3928,-3.3926,-3.3973,-3.3981,-3.4009,-3.3958,-3.4093,-3.4096,-3.41,-3.4136,-3.4144,-3.415,0,0,0,0,0,-3.38,-3.3848,-3.384,-3.3849,-3.3895,-3.3934,-3.3939,-3.3936,-3.3915,-3.3937,-3.3943,-3.3928,-3.4002,-3.3978,-3.3987,-3.4016,-3.4091,-3.4095,-3.41,-3.4133,-3.4142,-3.415,0,0,0,0,0,0,-3.3833,-3.385,-3.3841,-3.3896,-3.3914,-3.3929,-3.3957,-3.3946,-3.397,-3.3965,-3.3959,-3.3964,-3.401,-3.4018,-3.3991,-3.4072,-3.4043,-3.4049,-3.4065,-3.4074,-3.4081,-3.4077,-3.3961,0,0,0,0,0,-3.3847,-3.3878,-3.389,-3.3938,-3.3947,-3.3951,-3.3967,-3.3963,-3.398,-3.3987,-3.3996,-3.4013,-3.4039,-3.4057,-3.4083,-3.4137,-3.4139,-3.4162,-3.4169,-3.4175,-3.418,-3.4207,-3.4216,-3.4116,-3.4116,-3.4116,0,0,-3.3875,-3.3889,-3.3908,-3.3944,-3.3957,-3.3988,-3.3957,-3.3991,-3.4013,-3.3992,-3.4035,-3.4042,-3.406,-3.4109,-3.4131,-3.4117,-3.4208,-3.418,-3.4185,-3.4187,-3.4212,-3.4222,-3.423,-3.4119,-3.4119,-3.4118,0,0,-3.3942,-3.3957,-3.3996,-3.4009,-3.4029,-3.4031,-3.4041,-3.4058,-3.4061,-3.4104,-3.4089,-3.4114,-3.4161,-3.4174,-3.4186,-3.4256,-3.4242,-3.4265,-3.4301,-3.4328,-3.4336,-3.4342,-3.4365,-3.4374,-3.427,-3.427,-3.427,0,-3.3975,-3.4021,-3.4018,-3.4052,-3.4067,-3.4051,-3.409,-3.4103,-3.413,-3.414,-3.4124,-3.4181,-3.4192,-3.4243,-3.426,-3.4271,-3.428,-3.4262,-3.4335,-3.4342,-3.4348,-3.437,-3.4379,-3.4273,-3.4272,-3.4272,-3.4272,0,-3.4059,-3.4091,-3.412,-3.4147,-3.4166,-3.4202,-3.4203,-3.4222,-3.4216,-3.4219,-3.4261,-3.4274,-3.43,-3.4312,-3.4307,-3.4362,-3.4352,-3.4336,-3.4306,-3.436,-3.438,-3.4389,-3.4276,-3.4275,-3.4274,-3.4274,0,0,-3.4148,-3.4171,-3.4182,-3.4192,-3.4213,-3.4237,-3.4272,-3.4298,-3.4313,-3.4332,-3.436,-3.4399,-3.4384,-3.4398,-3.4394,-3.4417,-3.4469,-3.4397,-3.4398,-3.4409,-3.4528,-3.4539,-3.4549,-3.4461,-3.4462,-3.4463,-3.4525,0,-3.4214,-3.4276,-3.4273,-3.433,-3.4358,-3.4342,-3.4372,-3.4387,-3.439,-3.4414,-3.4417,-3.4444,-3.4423,-3.4431,-3.4454,-3.4458,-3.4492,-3.4454,-3.4484,-3.4486,-3.4479,-3.4559,-3.4572,-3.463,-3.4534,-3.4535,-3.4536,0,-3.4301,-3.4322,-3.4382,-3.4396,-3.4407,-3.4435,-3.4457,-3.4481,-3.4496,-3.4497,-3.4512,-3.4504,-3.4537,-3.4508,-3.4553,-3.4526,-3.4539,-3.4543,-3.4545,-3.4546,-3.4513,-3.4561,-3.4648,-3.4656,-3.4549,-3.4548,-3.4547,0,-3.4357,-3.4401,-3.4441,-3.4452,-3.447,-3.4489,-3.4497,-3.4511,-3.4526,-3.4545,-3.4555,-3.4578,-3.459,-3.4608,-3.4605,-3.4584,-3.465,-3.4621,-3.465,-3.465,-3.4663,-3.4662,-3.4752,-3.4674,-3.4674,-3.4674,-3.4674,0,-3.443,-3.4467,-3.4467,-3.4492,-3.4532,-3.4527,-3.4566,-3.4572,-3.4585,-3.4609,-3.4597,-3.462,-3.4616,-3.4638,-3.4636,-3.4673,-3.4679,-3.4679,-3.4678,-3.4679,-3.4679,-3.4686,-3.4681,-3.4676,-3.4676,-3.4675,-3.4675,0,-3.4499,-3.4501,-3.4544,-3.4557,-3.4561,-3.459,-3.46,-3.4623,-3.4625,-3.4656,-3.4663,-3.4667,-3.4693,-3.4692,-3.4721,-3.472,-3.4764,-3.4759,-3.4758,-3.4757,-3.4785,-3.4781,-3.4881,-3.4892,-3.4809,-3.481,-3.4811,0,-3.4545,-3.4573,-3.4589,-3.4604,-3.4614,-3.464,-3.4655,-3.4651,-3.4667,-3.4686,-3.4706,-3.4731,-3.475,-3.4792,-3.4797,-3.4819,-3.4813,-3.4846,-3.4816,-3.4816,-3.4811,-3.4808,-3.481,-3.4851,-3.4852,-3.4853,-3.4854,0,-3.4626,-3.4625,-3.4648,-3.467,-3.4689,-3.4707,-3.4723,-3.4736,-3.4734,-3.4752,-3.4779,-3.4794,-3.4824,-3.4848,-3.4868,-3.4875,-3.4863,-3.4863,-3.4871,-3.4872,-3.4869,-3.4869,-3.4772,-3.4861,-3.486,-3.4859,-3.4859,-3.4859,-3.4683,-3.4706,-3.472,-3.4746,-3.4757,-3.4772,-3.4794,-3.4798,-3.482,-3.4844,-3.4841,-3.487,-3.4883,-3.4909,-3.4918,-3.494,-3.4928,-3.4939,-3.4942,-3.4944,-3.4946,-3.4867,-3.4944,-3.4944,-3.4943,-3.4943,-3.4943,0,-3.4761,-3.4769,-3.4793,-3.4815,-3.4835,-3.4823,-3.4839,-3.4856,-3.4882,-3.4895,-3.4914,-3.4944,-3.4966,-3.4972,-3.4994,-3.501,-3.5005,-3.5016,-3.5013,-3.5015,-3.4957,-3.4947,-3.5019,-3.5019,-3.5019,-3.5019,-3.5019,-3.5019,-3.4804,-3.4842,-3.4842,-3.4884,-3.4892,-3.492,-3.4931,-3.4944,-3.4954,-3.4987,-3.5006,-3.501,-3.502,-3.5042,-3.5062,-3.5063,-3.507,-3.5083,-3.5081,-3.5027,-3.5019,-3.5012,-3.5003,-3.5085,-3.5085,-3.5137,-3.5137,-3.5138]}]]